Location: *
(37.0519°S, 174.3753°E)
Time: 06:27:46
(UTC+00:00)

Daily predictions for brighter satellites

Satellite Brightness Start Highest point End
(mag) Time Altitude Azimuth Time Altitude Azimuth Time Altitude Azimuth
Terra 3.7 12:04:45 10° SSW 12:07:54 25° SW 12:07:54 25° SW
Lacrosse 5 3.9 12:07:22 10° SSW 12:11:27 23° SSE 12:12:05 22° SE
Cosmos 2279 Rocket 4.3 12:08:22 10° S 12:13:32 62° SSW 12:13:32 62° SSW
Resurs 1-4 Rocket 3.9 12:15:25 24° SE 12:15:25 24° SE 12:19:08 10° SSE
Nadezhda 4 Rocket 4.5 12:23:02 56° SE 12:23:02 56° SE 12:28:11 10° SSE
ADEOS II 4.3 12:48:18 17° ESE 12:48:55 17° ESE 12:52:17 10° SSE
Cosmos 2344 4.3 12:47:30 10° SSW 13:01:01 89° ESE 13:03:37 59° NNE
ATLAS 3B CENTAUR R/B 4.4 13:06:18 55° N 13:06:24 55° N 13:28:57 10° ENE
COSMOS 2455 4.1 13:03:40 10° S 13:09:08 34° SE 13:10:20 31° ESE
ATLAS 2AS CENTAUR R/B 3.6 13:03:24 10° SSW 13:09:42 44° SE 13:11:56 34° E
Cosmos 1980 Rocket 4.2 13:14:57 10° S 13:19:23 22° ESE 13:21:48 17° E
SeaSat 1 3.8 13:17:10 10° SSE 13:20:08 34° SE 13:20:08 34° SE
Cosmos 968 Rocket 4.5 13:26:47 44° S 13:26:47 44° S 13:30:29 10° SSE
Cosmos 1833 Rocket 3.3 13:26:43 53° SSE 13:26:43 53° SSE 13:31:01 10° SSE
Cosmos 1697 Rocket 3.6 13:20:11 10° S 13:25:29 44° ESE 13:25:29 44° ESE
CZ-2D R/B 3.1 13:31:23 40° SSW 13:31:23 40° SSW 13:34:52 10° SSW
Meteor 2-4 Rocket 4.2 13:32:13 64° S 13:32:13 64° S 13:37:15 10° S
ARIANE 5 R/B 3.7 13:38:37 37° ESE 13:38:37 37° ESE 13:43:03 10° S
Cosmos 1655 Rocket 4.3 13:40:43 61° E 13:40:43 61° E 13:46:56 10° SSE
Aureole 3 Rocket 4.5 13:44:59 10° S 13:48:38 39° SSE 13:48:38 39° SSE
Meteor 2-13 Rocket 4.5 13:51:10 76° SSE 13:51:10 76° SSE 13:56:48 10° S
Resurs 1-4 Rocket 3.6 13:56:30 28° SW 13:56:30 28° SW 13:59:26 10° SSW
Lacrosse 5 3.9 13:49:44 10° SW 13:51:13 19° SW 13:51:13 19° SW
Cosmos 2082 Rocket 2.5 14:00:50 62° SSW 14:00:50 62° SSW 14:05:54 10° SSE
IRS-1C 4.5 14:03:26 62° SSW 14:03:26 62° SSW 14:07:53 10° SSW
Cosmos 1417 Rocket 4.4 13:58:31 10° S 14:04:29 81° SW 14:04:29 81° SW
SL-16 R/B 4.0 14:00:14 10° SE 14:05:21 26° E 14:07:01 23° ENE
Cosmos 2285 Rocket 4.2 14:08:07 59° ENE 14:08:32 60° ENE 14:14:54 10° SSE
ATLAS 5 CENTAUR R/B 3.6 14:11:24 34° NE 14:12:21 35° ENE 14:18:27 10° SE
Cosmos 2266 Rocket 3.9 14:15:01 74° NE 14:15:31 79° E 14:22:01 10° S
Spot 4 Rocket 4.2 14:19:11 71° ESE 14:19:11 71° ESE 14:24:13 10° S
deb Chang Zheng 4 4.3 14:25:28 50° SE 14:25:28 50° SE 14:29:06 10° S
Meteor 1-15 Rocket 4.1 14:21:51 10° S 14:27:31 82° E 14:27:45 79° ENE
NOSS 3-4 (A) 3.4 14:21:04 10° SW 14:27:58 73° WNW 14:28:04 73° NW
NOSS 3-4 (C) 3.4 14:21:11 10° SW 14:28:04 74° WNW 14:28:13 73° NW
ADEOS II 2.6 14:29:14 47° SW 14:29:14 47° SW 14:33:21 10° SSW
Okean 1 Rocket 4.2 14:27:31 10° SSW 14:30:18 37° SSW 14:30:18 37° SSW
Cosmos 2360 4.2 14:27:53 10° SSW 14:33:12 69° WSW 14:33:12 69° WSW
Cosmos 1777 Rocket 4.1 14:36:04 63° SW 14:36:04 63° SW 14:41:04 10° SSE
MOZ.5/SAFIR/RUBIN 5/SL-8 4.2 14:31:37 10° SSE 14:36:22 55° E 14:36:25 55° ENE
ERS-2 3.8 14:35:22 10° SSE 14:38:04 30° ESE 14:38:04 30° ESE
Cosmos 1818 4.4 14:39:04 37° WSW 14:39:21 37° SW 14:44:22 10° SSE
USA 81 4.4 14:39:44 52° NE 14:40:35 59° E 14:45:50 10° SSE
Cosmos 773 Rocket 3.9 14:36:12 10° SSW 14:41:24 82° WSW 14:41:24 82° WSW
SJ 16-02 3.3 14:41:13 20° ENE 14:42:05 21° E 14:45:23 10° SE
SL-27 R/B 4.4 14:44:09 26° S 14:44:09 26° S 14:45:47 10° SSE
Cosmos 2278 4.0 14:37:40 10° SSW 14:42:25 50° WSW 14:42:25 50° WSW
Meteor 2-19 Rocket 4.3 14:47:10 62° N 14:48:19 89° WSW 14:54:31 10° S
SL-19 R/B 4.4 14:46:18 10° S 14:52:05 72° WSW 14:53:09 59° NW
SL-16 R/B 3.6 14:47:59 10° S 14:53:17 38° ESE 14:58:33 10° NE
Cosmos 1805 3.7 14:49:48 10° S 14:53:23 59° SE 14:53:23 59° SE
COSMOS 2455 3.8 14:49:33 10° SW 14:53:25 31° WSW 14:53:25 31° WSW
H-2A R/B 4.3 14:54:05 10° SE 14:56:51 17° E 14:58:49 13° NE
Okean 2 3.6 14:58:17 69° SSW 14:58:17 69° SSW 15:02:05 10° S
SeaSat 1 4.2 14:55:43 10° S 14:59:10 19° SW 14:59:54 18° WSW
ATLAS 2AS CENTAUR R/B 3.5 14:54:23 10° SW 14:59:16 34° W 14:59:16 34° W
DELTA 2 R/B (1) 4.0 15:02:30 44° NNE 15:02:48 45° NNE 15:08:07 10° E
Cosmos 1980 Rocket 2.4 14:58:08 10° SSW 15:03:29 50° W 15:03:29 50° W
Starlink L 4.5 15:05:24 35° SSE 15:05:24 35° SSE 15:07:34 10° SE
Starlink A 4.4 15:07:19 36° S 15:07:19 36° S 15:09:34 10° SE
Starlink R 4.4 15:09:16 36° S 15:09:16 36° S 15:11:34 10° SE
Cosmos 1697 Rocket 4.4 15:04:55 10° SW 15:07:10 19° WSW 15:07:10 19° WSW
Starlink K 4.3 15:11:09 36° S 15:11:09 36° S 15:13:31 10° SE
CBERS 1 LM4 rocket 4.4 15:09:13 40° NNE 15:11:04 83° ESE 15:15:58 10° SSW
Starlink M 4.3 15:13:03 36° S 15:13:03 36° S 15:15:30 10° SE
Cosmos 1455 Rocket 3.0 15:08:12 10° S 15:12:42 88° E 15:13:26 62° N
Cosmos 2098 Rocket 3.3 15:12:15 47° NE 15:13:10 60° E 15:16:53 10° SSE
Cosmos 1975 Rocket 3.7 15:14:43 40° WSW 15:14:43 40° WSW 15:18:30 10° S
MSX 4.1 15:10:13 17° NNE 15:14:42 70° ESE 15:20:28 10° S
Cosmos 1356 4.3 15:11:56 10° SSW 15:14:28 43° SSW 15:14:28 43° SSW
IDEFIX/ARIANE 42P 2.5 15:15:18 42° N 15:17:09 79° WNW 15:22:27 10° SSW
ARIANE 5 R/B 4.1 15:18:58 20° WSW 15:18:58 20° WSW 15:21:31 10° SW
Starlink Z 4.5 15:18:25 29° S 15:18:25 29° S 15:20:32 10° SSE
Starlink AK 4.5 15:18:38 29° S 15:18:38 29° S 15:20:44 10° SSE
Cosmos 923 Rocket 4.4 15:12:50 10° SSW 15:18:04 64° ESE 15:23:15 10° NNE
Starlink AL 4.5 15:18:50 29° S 15:18:50 29° S 15:20:56 10° SSE
Starlink AD 4.5 15:19:05 29° S 15:19:05 29° S 15:21:12 10° SSE
Starlink Y 4.5 15:19:31 29° S 15:19:31 29° S 15:21:38 10° SSE
Starlink AG 4.5 15:19:35 28° S 15:19:35 28° S 15:21:41 10° SSE
Starlink W 4.5 15:19:58 28° S 15:19:58 28° S 15:22:04 10° SSE
Starlink AJ 4.5 15:20:06 28° S 15:20:06 28° S 15:22:13 10° SSE
Starlink AM 4.5 15:20:36 28° SSW 15:20:36 28° SSW 15:22:46 10° SSE
Starlink AP 4.5 15:20:48 28° SSW 15:20:48 28° SSW 15:22:58 10° SSE
Starlink AA 4.5 15:21:02 28° SSW 15:21:02 28° SSW 15:23:12 10° SSE
Starlink AF 4.5 15:21:14 28° SSW 15:21:14 28° SSW 15:23:24 10° SSE
Starlink AB 4.5 15:21:26 28° SSW 15:21:26 28° SSW 15:23:37 10° SSE
Starlink AN 4.5 15:21:40 28° SSW 15:21:40 28° SSW 15:23:52 10° SSE
CZ-2C R/B 4.2 15:29:37 24° WSW 15:29:37 24° WSW 15:31:43 10° SW
Meteor 2-15 Rocket 4.4 15:24:34 10° S 15:30:45 83° W 15:35:06 21° N
Cosmos 1544 Rocket 3.5 15:26:15 10° S 15:30:48 77° W 15:32:17 42° N
Meteor 1-4 Rocket 4.2 15:33:50 23° WSW 15:33:50 23° WSW 15:36:21 10° SSW
CZ-2C R/B 3.2 15:28:17 10° NNE 15:33:18 54° ESE 15:38:18 10° S
Cosmos 1733 3.1 15:30:13 10° SSW 15:34:03 63° W 15:34:20 60° WNW
Cosmos 1470 3.7 15:30:10 10° S 15:34:03 47° E 15:37:23 13° NNE
Cosmos 1809 Rocket 4.4 15:33:05 29° NNW 15:36:26 82° W 15:42:37 10° S
Meteor 1-21 4.2 15:33:44 33° NNW 15:36:28 77° W 15:42:22 10° S
Cosmos 1758 4.2 15:32:27 10° S 15:36:30 49° E 15:40:15 11° NNE
Cosmos 1953 4.4 15:34:45 10° SSE 15:38:14 27° ESE 15:41:41 10° NE
Cosmos 1766 4.3 15:39:47 10° SSW 15:42:56 29° W 15:42:56 29° W
SL-08 R/B 4.4 15:41:47 26° NNW 15:45:24 73° W 15:51:34 10° S
Cosmos 1025 Rocket 3.0 15:44:34 37° NNW 15:46:13 68° W 15:50:40 10° S
CZ-4C R/B 4.0 15:43:28 10° SSE 15:46:31 38° E 15:48:12 21° NNE
Cosmos 1707 2.9 15:44:43 28° N 15:46:39 69° E 15:50:32 10° SSE
ISS -1.2 15:47:23 12° NNE 15:48:36 14° NE 15:50:23 10° E
SL-16 R/B 3.0 15:43:11 10° S 15:49:05 45° WSW 15:52:06 26° NW
Cosmos 1842 4.2 15:49:53 29° W 15:50:08 29° WSW 15:53:37 10° SSW
SL-08 R/B 3.5 15:46:16 10° SSE 15:51:19 80° ENE 15:54:47 20° N
ADEOS 3.6 15:49:48 20° N 15:53:19 56° W 15:58:32 10° SSW
PAYLOAD A 3.9 15:49:25 12° N 15:54:02 77° WNW 15:59:16 10° SSW
Cosmos 2322 Rocket 2.1 15:49:52 10° SSW 15:55:32 78° WNW 16:01:09 10° NNE
ATLAS 5 CENTAUR R/B 3.2 15:52:57 24° WNW 15:57:03 47° SW 16:03:28 10° SSE
Meteor 1-31 Rocket 3.5 15:57:34 10° NNE 16:01:18 53° ESE 16:05:07 10° S
SWARM A 4.4 15:59:42 10° S 16:03:07 74° E 16:05:54 14° N
Cosmos 1437 Rocket 3.6 16:03:13 28° WNW 16:04:29 35° WSW 16:08:18 10° S
COSMOS 2487 3.1 16:04:39 31° WNW 16:05:37 38° WSW 16:08:55 10° S
Centaur D AC-29 3.1 16:03:33 14° N 16:05:37 19° NE 16:11:02 10° ENE
Cosmos 1680 Rocket 3.5 16:00:28 10° SSW 16:05:43 61° WNW 16:10:56 10° N
Cosmos 1898 Rocket 3.9 16:04:55 24° NW 16:07:48 49° WSW 16:12:55 10° S
Cosmos 1937 Rocket 3.5 16:04:26 22° NNW 16:07:52 69° WSW 16:13:05 10° SSE
Cosmos 1536 Rocket 4.3 16:07:30 25° NW 16:09:25 36° WSW 16:13:38 10° S
Spot 2 4.3 16:07:52 18° NNW 16:10:39 45° W 16:14:51 10° SSW
ERS-2 4.2 16:10:00 10° SSW 16:11:59 14° WSW 16:12:40 13° WSW
Nadezhda 1 Rocket 3.9 16:06:22 10° S 16:12:41 76° W 16:18:48 10° N
CZ-4B R/B 3.1 16:09:07 10° NNE 16:12:46 62° ESE 16:16:24 10° S
RESURS DK-1 2.4 16:08:49 10° SSW 16:12:55 58° WNW 16:16:59 10° N
SAR-Lupe-4 3.5 16:10:27 10° SSE 16:14:07 87° WSW 16:16:54 16° NNW
ERBS 3.1 16:16:24 18° NNW 16:18:36 45° NE 16:21:56 10° SE
Atlas Centaur 2 4.2 16:14:38 13° NNW 16:20:23 28° NNE 16:26:36 10° ENE
SJ 16-02 2.4 16:18:14 19° WNW 16:20:26 30° WSW 16:24:21 10° S
Cosmos 1607 4.1 16:15:47 14° NNW 16:21:21 85° ENE 16:27:49 10° SSE
Cosmos 2112 Rocket 4.3 16:18:47 10° SSW 16:23:53 48° WNW 16:28:58 10° N
DNEPR-1 R/B 3.8 16:25:58 11° NNW 16:30:04 62° ENE 16:34:08 10° SE
Cosmos 1461 4.5 16:26:27 10° SSW 16:30:29 39° SE 16:34:19 10° NE
Cosmos 2150 Rocket 4.4 16:27:08 10° N 16:32:35 73° ENE 16:38:05 10° SSE
H-2A R/B 2.9 16:29:09 10° S 16:32:54 32° WSW 16:35:54 14° NW
Cosmos 1709 Rocket 4.1 16:26:53 10° N 16:33:18 79° W 16:39:45 10° S
CZ-4B R/B 4.2 16:30:03 10° N 16:34:19 58° W 16:38:48 10° SSW
Okean O Rocket 4.0 16:31:03 10° NE 16:34:46 28° ESE 16:38:31 10° SSE
Cosmos 372 Rocket 4.1 16:30:13 10° NNW 16:35:27 83° ENE 16:40:43 10° SSE
Shenzhou-11 Module 1.7 16:33:42 19° NW 16:35:27 71° NNE 16:38:09 10° ESE
SL-16 R/B 3.1 16:32:25 10° SW 16:37:10 27° WNW 16:41:52 10° NNW
CZ-4B R/B 2.0 16:34:07 10° SSE 16:37:40 62° E 16:41:08 10° N
Cosmos 2360 Rocket 2.2 16:35:40 10° SSW 16:41:19 64° WNW 16:46:54 10° N
Cosmos 2322 4.1 16:36:20 10° SSW 16:42:07 73° ESE 16:47:49 10° NNE
Meteor 1-28 Rocket 3.5 16:40:48 10° S 16:44:31 51° WSW 16:48:12 10° NNW
Cosmos 2219 Rocket 3.5 16:40:09 10° S 16:45:34 45° ESE 16:50:56 10° NE
Cosmos 2084 Rocket 3.9 16:44:15 10° SW 16:48:13 38° WNW 16:52:11 10° N
DELTA 2 R/B (1) 3.7 16:43:28 10° W 16:49:06 80° SSW 16:54:45 10° ESE
Cosmos 1892 Rocket 3.5 16:48:56 10° NNW 16:53:17 71° W 16:57:42 10° S
Meteor 1-16 Rocket 4.4 16:49:20 10° SSW 16:55:06 64° W 17:00:56 10° N
Kosmos-1675 3.4 16:49:45 10° SSW 16:57:50 86° WNW 17:00:06 10° NNE
Cosmos 1726 2.4 16:55:49 10° SSW 16:59:30 49° W 17:03:07 10° NNW
H-2A R/B 3.7 16:55:55 10° NNW 16:59:34 25° W 17:03:19 10° SW
CZ-4C R/B 3.7 16:55:40 10° SSW 17:00:49 38° SE 17:05:18 10° ENE
Meteor 2-5 Rocket 3.9 16:56:44 10° N 17:02:42 82° W 17:08:41 10° S
USA 267 3.4 16:57:06 10° SE 17:03:43 74° SW 17:10:16 10° NW
Timation 2 Rocket 4.2 16:59:13 10° NNW 17:06:01 71° WSW 17:12:37 10° SSE
